Temperature
24 25 25 26 26 26 25 23 23 23 22 22 22 22 22 22 22 22 21 22 22 22 21 21 21 21 20 20 20 20 19 19 19 19 18 18 18 17 17 17 17 17 16 16
23 25 25 25 25 26 25 24 23 23 22 22 22 22 22 22 22 22 21 21 21 21 21 21 21 20 20 20 20 19 19 19 19 18 18 18 17 17 17 17 17 16 16 16
21 23 23 23 24 24 24 23 22 21 21 21 21 21 21 22 22 21 21 21 21 21 21 21 20 20 20 19 19 19 19 18 18 18 18 17 17 17 17 17 16 16 16 16
20 22 22 22 23 24 23 22 22 21 21 21 21 21 22 22 22 21 21 21 21 21 20 20 20 20 19 19 19 19 18 18 18 18 17 17 17 17 16 16 16 16 16 15
18 20 21 22 23 23 22 21 21 21 21 21 21 21 21 21 21 21 21 21 21 21 20 20 20 19 19 19 18 18 18 18 17 17 17 17 17 16 16 16 15 15 15 15
18 20 21 21 23 23 22 20 21 20 20 20 20 18 19 21 21 21 21 21 20 20 20 19 19 19 18 18 18 18 17 17 17 17 17 16 16 16 16 15 15 15 15 15
18 19 19 21 22 22 21 20 20 20 20 20 19 19 20 20 20 21 20 20 20 20 20 19 19 18 18 18 17 17 17 17 17 16 16 16 16 15 15 15 15 14 14 14
17 18 19 20 21 20 19 20 20 20 20 20 20 20 20 20 20 20 20 20 20 19 19 19 18 18 18 17 17 16 16 16 16 16 16 16 15 15 15 14 14 14 14 14
17 17 19 21 20 21 21 20 20 20 20 20 20 19 19 19 19 19 19 19 19 19 18 18 17 17 17 17 16 16 16 16 16 15 15 15 15 14 14 14 14 14 14 14
16 17 19 20 20 20 20 20 20 20 20 19 19 19 19 19 19 19 18 18 19 18 18 17 17 17 17 16 16 16 16 15 15 15 15 14 14 14 14 14 14 14 14 13
16 17 18 19 19 19 20 19 19 19 19 19 19 19 19 18 18 18 18 18 18 18 17 17 16 16 16 16 16 16 15 15 15 15 14 14 14 14 14 14 13 13 13 13
15 17 16 18 19 19 19 19 19 19 19 19 19 18 18 18 18 17 17 17 17 17 17 16 16 16 16 16 15 15 15 15 14 14 14 13 13 13 13 13 13 13 13 13
19 19 19 18 18 18 18 18 18 18 18 18 18 18 17 17 17 17 17 16 16 16 16 16 15 15 15 15 15 15 14 14 14 14 13 13 13 13 13 13 13 13 13 12
19 19 18 18 18 18 18 18 18 18 18 18 17 17 17 17 16 16 16 16 16 16 15 15 15 15 15 15 14 14 14 14 13 13 13 13 13 13 13 12 12 12 12 12
18 18 18 18 17 17 17 17 17 17 17 17 17 17 16 16 16 16 16 15 15 15 15 15 14 14 14 14 14 14 13 13 13 13 12 12 12 12 12 12 12 12 12 12
18 17 17 17 17 17 17 17 17 16 16 16 16 16 16 16 15 15 15 15 15 15 14 14 14 14 14 13 13 13 13 13 12 12 12 12 12 12 12 11 11 11 11 11
17 17 17 16 16 16 16 16 16 16 16 16 16 15 15 15 15 15 14 14 14 14 14 14 13 13 13 13 13 12 12 12 12 12 11 11 11 11 11 11 11 11 11 11
17 17 16 16 16 16 16 16 16 15 15 15 15 15 15 15 14 14 14 14 14 13 13 13 13 13 12 12 12 12 12 12 12 11 11 11 11 11 11 11 11 10 10 10
16 16 16 16 16 15 15 15 15 15 15 15 15 14 14 14 14 14 14 13 13 13 13 13 12 12 12 12 12 12 11 11 11 11 11 11 10 10 10 10 10 10 10 10
16 16 16 15 15 15 15 15 15 14 14 14 14 14 14 14 13 13 13 13 13 13 12 12 12 12 12 12 11 11 11 11 11 11 11 11 10 10 10 10 10 10 10 10
15 15 15 15 15 14 14 14 14 14 14 14 14 14 13 13 13 13 13 12 12 12 12 12 12 12 11 11 11 11 11 11 11 11 11 10 10 10 10 10 10 10 10 10
14 14 14 14 14 14 14 14 14 14 14 13 13 13 13 13 12 12 12 12 12 12 12 11 11 11 11 11 11 11 11 11 10 10 10 10 10 10 10 10 10 9 9 9
14 13 13 13 13 13 13 13 13 13 13 13 13 13 13 12 12 12 12 12 12 11 11 11 11 11 11 11 11 11 10 10 10 10 10 10 10 10 9 9 9 9 9 9
13 13 13 13 13 13 13 13 13 13 13 13 13 13 12 12 12 12 12 12 11 11 11 11 11 11 11 10 10 10 10 10 10 10 10 10 9 9 9 9 9 9 9 9
13 13 13 13 13 13 13 12 13 13 12 12 12 12 12 12 12 12 12 11 11 11 11 11 11 11 10 10 10 10 10 10 10 10 9 9 9 9 9 9 9 9 8 8
13 12 12 13 12 12 12 12 12 12 12 12 12 12 12 11 11 11 11 11 11 11 11 11 10 10 10 10 10 10 10 9 9 9 9 9 9 9 9 9 8 8 8 8
12 12 12 12 12 12 12 12 12 12 12 12 12 12 11 11 11 11 11 11 11 10 10 10 10 10 10 9 9 9 9 9 9 9 9 9 9 8 8 8 8 8 8 8
Wind_Speed
3 3 2 5 7 5 1 5 6 7 7 7 8 9 9 8 8 9 8 7 7 6 5 4 4 3 3 3 3 5 5 5 5 4 3 3 3 3 2 2 2 2 1 1
4 4 6 6 7 5 3 2 2 3 2 4 3 5 6 7 9 9 9 8 7 5 5 5 5 4 3 2 3 4 5 4 4 3 2 2 3 3 2 2 2 1 1 1
3 5 5 5 5 3 2 2 4 2 3 2 4 6 7 7 8 8 9 8 7 6 5 4 4 4 3 3 3 3 4 4 3 3 3 3 3 2 2 2 2 2 2 1
0 4 2 6 2 3 5 4 2 2 2 4 5 6 5 6 6 6 6 6 6 6 5 5 4 3 3 3 3 3 3 3 3 3 3 3 2 2 2 2 2 3 3 2
3 1 4 4 3 3 2 4 4 3 2 3 4 5 3 1 4 5 6 5 5 5 5 5 4 4 4 3 3 2 1 2 2 3 3 3 3 3 2 2 2 2 2 2
3 2 4 5 5 2 4 2 4 3 3 3 5 3 3 2 2 3 3 4 4 4 4 5 4 4 5 3 2 1 1 2 2 2 3 3 3 3 2 2 3 2 2 2
3 3 4 5 6 4 2 4 3 1 1 2 2 4 4 3 2 3 3 3 4 4 5 5 4 5 5 3 2 2 2 1 1 2 2 3 2 2 2 2 1 1 2 2
3 3 5 5 3 2 4 2 1 1 1 1 2 1 2 3 2 2 3 3 5 5 3 3 4 5 5 3 2 1 1 1 0 1 1 1 2 1 1 2 1 1 2 3
5 5 5 1 2 2 2 1 1 1 1 1 1 2 2 2 1 1 2 2 4 5 4 2 3 4 4 3 2 2 2 1 0 0 1 1 2 2 1 1 2 2 2 2
1 1 1 1 3 3 3 2 2 1 1 2 2 2 2 2 0 1 1 1 3 5 4 3 2 2 3 3 2 2 2 1 1 0 1 1 1 1 2 2 2 2 2 3
0 2 2 4 3 3 4 5 4 2 1 2 4 3 3 2 2 1 1 1 2 3 4 4 2 2 2 1 2 2 1 1 1 1 1 1 1 1 2 3 4 4 3 3
4 5 2 3 2 2 4 3 2 2 2 1 3 3 3 2 2 2 2 1 1 2 3 3 2 2 2 2 3 2 2 2 2 2 1 1 1 2 3 2 4 5 5 4
4 3 3 2 1 2 2 2 1 1 1 1 1 2 3 2 2 2 1 1 2 3 3 3 3 3 3 2 2 3 3 3 2 3 2 2 1 1 2 4 4 4 4 4
2 2 2 1 0 1 2 2 2 2 2 2 2 2 2 2 2 2 1 2 2 2 3 3 3 3 3 3 3 3 3 3 3 3 2 2 2 2 2 2 2 3 4 4
0 2 3 2 0 1 2 2 2 1 2 1 1 1 2 1 1 2 1 1 1 1 1 1 1 2 2 3 3 3 2 2 2 2 2 2 2 1 2 2 2 2 2 3
1 1 1 1 1 1 1 1 0 1 1 0 1 0 0 1 1 1 1 2 2 2 2 2 2 3 2 2 3 2 2 2 1 1 1 1 1 1 1 1 1 2 2 2
2 1 0 1 0 1 1 1 2 2 1 1 1 1 1 1 1 0 1 1 2 2 2 2 2 2 1 2 2 2 2 2 2 1 1 2 2 2 2 1 2 2 3 3
4 4 4 4 2 1 1 1 1 1 1 1 1 1 1 1 2 3 2 1 0 0 1 2 2 1 1 1 2 2 2 2 2 2 2 2 2 2 2 2 2 2 2 2
2 2 2 2 2 2 1 1 0 1 1 1 1 1 1 1 1 1 0 1 1 1 2 2 1 1 1 1 1 1 1 1 1 1 1 2 2 1 1 1 1 1 1 1
1 1 2 2 2 1 1 1 1 1 1 1 1 1 1 0 0 1 1 1 1 3 3 2 1 1 1 1 1 1 1 2 2 1 1 1 1 1 1 1 1 1 1 1
2 3 3 2 1 1 0 1 1 0 0 1 2 1 1 1 0 1 1 1 3 2 1 1 1 1 1 1 0 1 0 1 1 1 1 1 1 1 1 1 1 1 1 1
2 2 3 2 2 1 1 0 1 1 1 1 1 1 1 0 1 1 0 2 2 2 1 1 1 1 1 0 0 0 1 1 1 1 2 1 1 1 1 1 1 1 1 1
2 2 2 1 1 1 2 2 0 1 1 0 1 1 1 1 1 1 2 2 1 1 0 0 1 1 1 0 0 0 0 1 1 1 2 2 1 1 1 1 1 1 1 1
2 1 1 0 2 3 2 2 1 0 0 1 1 1 1 0 1 1 2 1 1 1 0 0 0 0 0 0 0 0 1 1 1 1 1 1 1 1 1 1 1 1 1 1
2 1 0 1 0 1 1 1 1 2 1 1 1 1 0 1 2 1 1 0 0 1 0 0 0 0 0 0 0 0 1 1 1 1 1 1 1 1 1 1 1 1 1 1
1 1 1 2 2 2 1 0 0 0 1 1 1 1 1 1 1 1 1 1 1 1 1 1 1 1 0 0 1 1 1 1 1 1 0 0 1 1 0 0 0 1 1 1
1 0 0 1 1 1 1 1 1 1 2 2 1 0 1 1 1 1 1 1 1 1 1 1 1 1 1 1 1 1 1 1 1 1 1 1 1 0 0 0 0 0 0 0
Wind_Direction
230 264 357 329 314 319 264 198 190 203 192 211 195 175 170 160 152 142 143 147 151 159 167 166 159 165 175 179 175 177 176 183 193 195 192 187 181 180 178 176 184 193 200 267
349 0 14 348 337 340 355 31 118 130 234 225 171 132 151 161 156 152 154 160 160 159 162 168 171 174 175 185 183 165 172 185 186 176 174 180 192 187 182 191 194 185 207 233
300 323 18 338 329 3 14 30 122 143 235 124 124 151 169 166 155 159 164 165 165 163 164 167 185 179 176 184 164 153 171 181 179 176 183 197 194 184 204 207 194 202 221 228
129 31 241 243 293 67 71 41 54 118 135 146 168 173 162 154 154 154 158 162 164 163 168 173 172 156 162 159 153 154 166 169 178 180 190 194 190 203 221 215 214 216 220 232
116 187 270 307 341 16 63 356 16 74 75 81 97 76 52 116 143 153 153 159 173 172 170 159 152 142 122 126 133 128 146 183 193 181 180 188 198 218 224 218 237 230 204 203
129 168 230 260 305 306 95 5 350 66 87 102 95 98 256 268 133 132 142 147 162 162 145 144 162 145 125 128 117 133 180 191 184 173 171 184 199 205 214 218 230 233 232 231
167 201 251 276 315 19 97 243 299 99 153 136 180 208 215 171 124 136 140 148 154 146 148 164 163 137 129 135 161 197 182 159 154 162 185 192 186 179 177 189 198 271 264 275
149 177 246 302 26 92 209 229 207 242 276 180 209 175 129 128 133 125 117 133 138 139 150 161 148 137 136 163 199 174 136 106 136 204 212 159 146 164 154 151 161 249 278 294
183 206 233 287 126 183 161 112 77 65 6 125 121 125 127 120 102 88 110 147 143 141 139 143 153 147 152 194 174 131 117 111 149 285 282 211 173 187 184 180 195 229 237 262
57 246 272 38 63 55 75 81 66 100 87 111 121 142 136 115 104 93 92 123 141 139 144 157 168 165 179 190 168 138 142 175 192 199 313 312 258 203 191 200 211 226 235 251
60 252 359 13 29 43 41 49 49 28 28 121 115 118 138 143 178 202 140 94 129 159 163 171 166 173 192 176 152 147 174 195 215 212 219 262 267 251 226 226 220 221 232 228
216 234 193 271 294 57 61 43 35 21 18 59 124 139 136 146 159 152 146 150 145 157 168 173 169 196 215 190 164 168 199 216 213 207 217 220 227 326 337 291 272 241 234 234
193 201 171 207 2 41 55 28 29 65 128 108 67 115 123 121 127 128 133 155 187 198 195 188 190 210 228 211 185 189 204 217 213 210 210 218 225 231 298 328 330 303 277 269
161 117 57 16 339 16 22 12 31 57 71 106 116 105 103 110 134 159 192 215 201 189 198 196 201 221 228 205 192 199 206 218 214 219 218 220 227 228 219 230 294 316 310 290
316 168 188 200 99 37 12 17 36 31 44 59 99 105 104 131 192 220 220 163 111 125 169 179 197 249 245 207 195 200 204 214 210 213 217 227 232 231 228 228 233 267 306 316
180 139 134 120 127 128 29 21 36 303 306 75 84 70 109 168 179 182 158 135 141 195 215 207 237 259 250 205 197 201 206 216 209 222 236 247 245 230 232 229 245 260 272 277
160 200 204 160 186 267 280 219 204 221 234 257 223 146 101 100 89 136 231 215 194 207 214 207 232 261 262 212 202 207 208 212 207 211 224 228 235 233 230 228 240 258 272 262
185 198 195 184 190 213 301 238 218 214 220 210 156 114 105 150 210 234 239 241 153 334 279 248 233 229 241 229 205 209 217 217 212 211 220 227 225 218 223 229 238 255 281 288
187 190 180 177 176 163 220 235 345 35 60 87 119 132 175 221 225 225 236 94 125 253 279 274 257 231 251 260 248 206 228 230 226 214 208 215 228 232 214 212 223 232 240 278
77 91 111 103 114 127 177 173 117 64 47 95 110 93 37 315 217 108 63 17 256 240 241 241 231 235 240 261 291 196 214 229 226 219 218 208 211 229 240 234 223 223 240 251
70 60 81 91 69 15 12 129 119 71 348 120 131 171 223 272 220 119 101 319 296 275 251 235 231 238 237 246 62 163 186 208 212 213 209 215 227 241 253 247 234 235 248 259
62 66 64 65 71 27 347 50 133 131 77 62 108 139 102 10 342 14 280 237 253 263 272 260 239 219 191 154 177 207 232 233 231 227 216 214 220 245 257 244 243 250 254 259
81 83 72 73 80 52 15 15 53 145 143 177 195 204 212 248 226 201 276 284 247 242 279 261 229 162 114 100 213 274 261 250 246 236 231 228 225 232 238 241 245 246 244 244
95 74 58 51 66 64 23 333 341 7 259 266 238 220 187 191 304 273 227 233 213 215 192 236 125 159 295 351 324 269 272 281 278 272 258 240 237 233 224 223 237 255 237 219
149 157 323 28 45 223 236 267 342 2 23 36 355 351 26 174 197 244 285 290 186 133 29 316 176 240 272 284 261 269 290 296 289 278 252 228 213 201 191 179 196 225 231 227
178 187 224 227 230 232 229 204 189 326 87 65 339 351 39 62 79 58 46 28 42 52 2 324 311 318 323 305 294 312 328 324 326 322 267 162 163 172 173 181 226 234 227 223
266 266 287 315 317 284 216 181 189 211 193 169 178 351 91 75 62 45 28 15 5 0 358 354 1 16 20 21 12 1 356 2 16 33 39 40 46 96 140 135 164 242 322 155
Height
1494 1489 1487 1488 1486 1484 1488 1494 1502 1499 1497 1492 1487 1487 1489 1490 1491 1493 1495 1495 1497 1499 1500 1501 1502 1503 1503 1504 1505 1505 1506 1505 1505 1505 1505 1505 1505 1504 1504 1503 1503 1502 1502 1501
1495 1488 1487 1489 1486 1484 1484 1486 1490 1492 1493 1485 1485 1486 1488 1489 1489 1491 1493 1495 1496 1497 1499 1500 1500 1501 1502 1502 1502 1503 1503 1503 1503 1503 1503 1503 1502 1502 1502 1501 1500 1500 1499 1498
1506 1494 1492 1502 1493 1488 1489 1487 1489 1496 1493 1487 1487 1487 1487 1487 1488 1489 1491 1492 1494 1495 1497 1498 1499 1499 1500 1500 1500 1500 1500 1500 1500 1500 1500 1500 1500 1500 1499 1499 1498 1497 1496 1495
1508 1505 1515 1501 1486 1484 1487 1488 1486 1486 1485 1485 1485 1484 1485 1486 1487 1487 1489 1491 1492 1493 1495 1496 1497 1497 1498 1498 1498 1498 1497 1497 1498 1498 1498 1497 1497 1496 1496 1495 1495 1494 1493 1493
1513 1515 1509 1495 1486 1486 1489 1493 1487 1486 1485 1485 1484 1485 1486 1487 1486 1487 1487 1489 1491 1492 1493 1494 1494 1494 1494 1495 1495 1495 1495 1494 1494 1495 1494 1493 1493 1492 1492 1492 1492 1491 1490 1489
1510 1513 1515 1500 1485 1481 1485 1496 1488 1486 1486 1486 1485 1491 1489 1486 1486 1486 1487 1488 1489 1490 1491 1492 1493 1493 1492 1492 1492 1492 1492 1491 1491 1491 1491 1490 1489 1489 1489 1489 1488 1488 1487 1486
1509 1512 1505 1490 1483 1482 1498 1499 1488 1486 1485 1485 1485 1486 1485 1485 1485 1485 1486 1486 1487 1488 1489 1489 1490 1490 1490 1490 1490 1489 1489 1489 1488 1488 1487 1487 1487 1486 1486 1486 1486 1485 1484 1483
1509 1513 1509 1487 1484 1489 1492 1487 1486 1485 1485 1484 1483 1483 1484 1483 1484 1484 1484 1485 1485 1486 1486 1487 1487 1487 1487 1487 1487 1488 1487 1486 1486 1485 1485 1485 1484 1484 1484 1484 1483 1481 1481 1480
1500 1501 1491 1486 1486 1487 1487 1486 1486 1485 1484 1483 1483 1482 1482 1482 1483 1483 1483 1483 1484 1484 1485 1485 1486 1485 1485 1485 1485 1485 1485 1484 1484 1483 1483 1483 1482 1482 1481 1481 1480 1479 1478 1477
1494 1491 1488 1487 1486 1486 1486 1486 1485 1484 1483 1482 1481 1481 1481 1482 1482 1482 1481 1482 1482 1482 1483 1483 1483 1483 1483 1483 1483 1482 1482 1482 1481 1480 1480 1480 1480 1479 1479 1478 1477 1476 1475 1474
1494 1490 1488 1487 1486 1486 1485 1484 1484 1483 1482 1480 1479 1480 1480 1480 1481 1481 1481 1480 1481 1481 1481 1480 1481 1481 1481 1481 1480 1479 1479 1478 1478 1478 1477 1477 1476 1476 1475 1475 1474 1473 1472 1471
1493 1488 1488 1487 1486 1485 1484 1483 1482 1481 1481 1479 1479 1479 1479 1479 1479 1479 1479 1479 1479 1479 1479 1478 1478 1478 1478 1478 1477 1476 1476 1475 1475 1474 1474 1473 1473 1472 1472 1472 1471 1471 1470 1469
1485 1485 1485 1485 1485 1484 1483 1483 1482 1481 1480 1479 1478 1478 1478 1477 1477 1477 1478 1478 1477 1476 1476 1476 1475 1475 1475 1474 1474 1473 1472 1472 1471 1471 1470 1470 1469 1468 1468 1468 1468 1467 1466 1466
1483 1483 1483 1483 1483 1483 1482 1482 1481 1480 1479 1478 1477 1477 1476 1475 1475 1476 1475 1475 1474 1474 1473 1473 1472 1471 1471 1471 1470 1470 1469 1469 1468 1468 1467 1466 1466 1465 1465 1464 1464 1463 1463 1462
1482 1482 1482 1482 1481 1481 1480 1480 1479 1478 1477 1476 1476 1475 1474 1474 1473 1473 1472 1472 1472 1471 1471 1470 1469 1469 1468 1467 1467 1466 1466 1465 1465 1464 1464 1463 1463 1462 1462 1461 1461 1460 1460 1459
1480 1480 1480 1480 1479 1479 1478 1478 1477 1476 1476 1475 1474 1473 1473 1472 1471 1471 1470 1470 1470 1468 1467 1467 1466 1466 1465 1464 1464 1463 1463 1462 1461 1461 1461 1460 1460 1459 1458 1458 1457 1457 1457 1456
1477 1477 1477 1477 1477 1477 1476 1475 1474 1474 1473 1472 1471 1471 1470 1470 1469 1469 1468 1468 1467 1466 1465 1464 1463 1463 1462 1461 1461 1460 1459 1459 1458 1458 1458 1457 1457 1457 1456 1455 1455 1454 1454 1454
1474 1474 1475 1475 1474 1474 1473 1473 1472 1471 1471 1470 1469 1469 1468 1467 1466 1466 1465 1465 1464 1463 1462 1462 1461 1460 1459 1459 1458 1457 1456 1456 1456 1455 1455 1455 1454 1454 1453 1453 1452 1452 1451 1451
1471 1471 1472 1472 1471 1471 1471 1471 1470 1469 1469 1468 1468 1467 1466 1465 1464 1464 1463 1462 1461 1460 1459 1459 1458 1457 1457 1456 1455 1455 1454 1454 1453 1453 1453 1452 1452 1452 1451 1451 1450 1449 1449 1448
1468 1469 1468 1468 1468 1469 1468 1468 1468 1468 1467 1467 1466 1465 1464 1464 1463 1462 1461 1460 1459 1458 1457 1456 1456 1455 1454 1454 1453 1452 1452 1451 1451 1451 1451 1450 1450 1449 1449 1448 1448 1447 1447 1446
1466 1466 1466 1466 1466 1466 1467 1466 1466 1466 1466 1465 1464 1464 1463 1462 1462 1461 1459 1458 1457 1457 1456 1455 1454 1453 1452 1452 1451 1450 1450 1449 1449 1449 1449 1448 1448 1447 1447 1446 1445 1444 1444 1443
1464 1464 1464 1464 1464 1465 1465 1465 1465 1465 1464 1464 1463 1462 1462 1461 1460 1460 1458 1457 1456 1456 1455 1453 1452 1452 1451 1450 1449 1449 1448 1448 1447 1447 1447 1446 1446 1445 1444 1444 1443 1442 1441 1440
1463 1463 1463 1464 1464 1463 1464 1464 1463 1463 1463 1462 1462 1461 1460 1460 1459 1458 1457 1456 1455 1454 1453 1452 1451 1450 1449 1449 1448 1447 1447 1446 1446 1445 1445 1444 1443 1443 1442 1441 1440 1439 1438 1438
1462 1463 1463 1463 1463 1462 1462 1462 1462 1462 1462 1461 1461 1460 1460 1459 1458 1458 1457 1456 1454 1453 1452 1451 1450 1449 1449 1448 1447 1446 1446 1445 1445 1444 1443 1442 1442 1441 1440 1439 1438 1437 1436 1435
1462 1462 1462 1462 1462 1462 1462 1462 1461 1461 1461 1460 1460 1460 1459 1458 1457 1456 1456 1454 1454 1453 1452 1451 1450 1449 1448 1447 1446 1445 1445 1444 1443 1442 1441 1440 1439 1438 1437 1436 1435 1434 1433 1432
1462 1461 1461 1461 1461 1461 1461 1461 1460 1460 1460 1459 1459 1459 1458 1457 1456 1455 1454 1454 1453 1452 1451 1450 1449 1448 1447 1446 1445 1444 1444 1443 1442 1440 1439 1438 1437 1436 1435 1434 1433 1432 1431 1430
1461 1461 1460 1460 1460 1460 1459 1459 1459 1458 1458 1458 1457 1457 1457 1456 1455 1454 1454 1453 1452 1451 1450 1449 1448 1447 1446 1445 1444 1443 1442 1441 1440 1438 1437 1436 1435 1434 1432 1431 1430 1429 1429 1428